Location: Davayat
(45.9471°N, 3.1105°E)
Time: 17:09:32
(UTC+00:00)

CENTAUR R/B - Pass Details

Date: 01 December 2020
Orbit: 750 x 1438 km, 63.4° (Epoch: 11 January)

Event Time Altitude Azimuth Distance (km) Brightness Sun altitude
Rises 17:59:21 0° 188° (S) 3,349 5.6 -19.4°
Reaches altitude 10° 18:01:48 10° 179° (S) 2,491 4.8 -19.8°
Maximum altitude 18:07:03 37° 114° (ESE) 1,445 3.0 -20.7°
Enters shadow 18:07:44 36° 100° (E) 1,490 3.0 -20.8°
